Windom, MN

10:26 AM CST on November 18, 2017 (GMT -0600)
Windom Municipal

Weather History for KMWM - July, 2014

Change the Weather History Date:

Wednesday, July 23, 2014

  Actual Average Record
Temperature  
Mean Temperature 68 °F -  
Max Temperature 80 °F 83 °F 96 °F (1960)
Min Temperature 55 °F 60 °F 46 °F (2003)
Cooling Degree Days 2    
Growing Degree Days 18 (Base 50)    
Moisture  
Dew Point 55 °F    
Average Humidity 65    
Maximum Humidity 94    
Minimum Humidity 37    
Precipitation  
Precipitation 0.00 in - - ()
Sea Level Pressure  
Sea Level Pressure 30.24 in    
Wind  
Wind Speed 6 mph (North)    
Max Wind Speed 10 mph    
Max Gust Speed -    
Visibility 10 miles    
Events      
Averages and records for this station are not official NWS values.
T = Trace of Precipitation, MM = Missing Value Source: NWS Daily Summary

Daily Weather History Graph

Daily Weather History Graph

Search for Another Location

Airport or City:

Trip Planner

Search our weather history database for the weather conditions in past years. The results will help you decide how hot, cold, wet, or windy it might be!

Date:

Astronomy

Jul. 23, 2014 Rise Set
Actual Time 5:59 AM CDT 8:53 PM CDT
Civil Twilight 5:25 AM CDT 9:27 PM CDT
Nautical Twilight 4:42 AM CDT 10:10 PM CDT
Astronomical Twilight 3:51 AM CDT 11:01 PM CDT
Moon 3:19 AM CDT (7/23) 6:22 PM CDT (7/23)
Length of Visible Light 16h 02m
Length of Day
14h 54m
Waning Crescent, 9% of the Moon is Illuminated
Jul 23
Waning Crescent
Jul 26
New
Aug 3
First Quarter
Aug 10
Full
Aug 17
Last Quarter

Hourly Weather History & Observations

Time (CDT) Temp. Dew Point Humidity Pressure Visibility Wind Dir Wind Speed Gust Speed Precip Events Conditions
12:13 AM 64.4 °F 57.2 °F 77% 30.22 in 10.0 mi NNW 10.4 mph - N/A   Clear
12:34 AM 64.4 °F 57.2 °F 77% 30.23 in 10.0 mi NW 9.2 mph - N/A   Clear
12:53 AM 62.6 °F 57.2 °F 82% 30.23 in 10.0 mi NNW 9.2 mph - N/A   Clear
1:13 AM 62.6 °F 55.4 °F 77% 30.23 in 10.0 mi NNW 9.2 mph - N/A   Clear
1:34 AM 62.6 °F 55.4 °F 77% 30.24 in 10.0 mi NW 9.2 mph - N/A   Clear
1:53 AM 60.8 °F 55.4 °F 82% 30.23 in 10.0 mi NNW 6.9 mph - N/A   Clear
2:13 AM 60.8 °F 55.4 °F 82% 30.24 in 10.0 mi NW 6.9 mph - N/A   Clear
2:33 AM 60.8 °F 55.4 °F 82% 30.24 in 10.0 mi NNW 6.9 mph - N/A   Clear
2:54 AM 59.0 °F 55.4 °F 88% 30.23 in 10.0 mi North 6.9 mph - N/A   Clear
3:13 AM 57.2 °F 55.4 °F 94% 30.23 in 10.0 mi North 5.8 mph - N/A   Clear
3:33 AM 57.2 °F 53.6 °F 88% 30.23 in 10.0 mi North 5.8 mph - N/A   Clear
3:54 AM 57.2 °F 53.6 °F 88% 30.24 in 10.0 mi NNW 4.6 mph - N/A   Clear
4:13 AM 57.2 °F 53.6 °F 88% 30.24 in 10.0 mi North 4.6 mph - N/A   Clear
4:33 AM 57.2 °F 53.6 °F 88% 30.23 in 10.0 mi North 3.5 mph - N/A   Clear
4:54 AM 55.4 °F 53.6 °F 94% 30.23 in 10.0 mi North 5.8 mph - N/A   Clear
5:13 AM 57.2 °F 53.6 °F 88% 30.25 in 10.0 mi NNW 6.9 mph - N/A   Clear
5:33 AM 57.2 °F 53.6 °F 88% 30.25 in 10.0 mi NNW 4.6 mph - N/A   Clear
5:54 AM 55.4 °F 53.6 °F 94% 30.26 in 10.0 mi NNW 4.6 mph - N/A   Clear
6:13 AM 55.4 °F 53.6 °F 94% 30.26 in 10.0 mi NNW 4.6 mph - N/A   Clear
6:33 AM 55.4 °F 53.6 °F 94% 30.27 in 10.0 mi NNW 4.6 mph - N/A   Clear
6:54 AM 57.2 °F 53.6 °F 88% 30.28 in 10.0 mi NNW 4.6 mph - N/A   Clear
7:13 AM 59.0 °F 55.4 °F 88% 30.29 in 10.0 mi NNW 5.8 mph - N/A   Clear
7:33 AM 60.8 °F 55.4 °F 82% 30.28 in 10.0 mi North 8.1 mph - N/A   Clear
7:54 AM 62.6 °F 55.4 °F 77% 30.29 in 10.0 mi North 6.9 mph - N/A   Clear
8:13 AM 64.4 °F 55.4 °F 73% 30.29 in 10.0 mi North 6.9 mph - N/A   Clear
8:33 AM 66.2 °F 55.4 °F 68% 30.29 in 10.0 mi North 6.9 mph - N/A   Clear
8:54 AM 68.0 °F 55.4 °F 64% 30.29 in 10.0 mi North 8.1 mph - N/A   Clear
9:13 AM 69.8 °F 55.4 °F 60% 30.29 in 10.0 mi NNE 5.8 mph - N/A   Clear
9:33 AM 69.8 °F 57.2 °F 64% 30.28 in 10.0 mi NNE 8.1 mph - N/A   Clear
9:54 AM 71.6 °F 57.2 °F 60% 30.27 in 10.0 mi ENE 8.1 mph - N/A   Clear
10:13 AM 71.6 °F 57.2 °F 60% 30.27 in 10.0 mi NE 8.1 mph - N/A   Clear
10:33 AM 73.4 °F 57.2 °F 57% 30.28 in 10.0 mi ENE 8.1 mph - N/A   Clear
10:54 AM 73.4 °F 57.2 °F 57% 30.28 in 10.0 mi ENE 9.2 mph - N/A   Clear
11:13 AM 75.2 °F 57.2 °F 53% 30.28 in 10.0 mi NE 8.1 mph - N/A   Clear
11:33 AM 75.2 °F 57.2 °F 53% 30.28 in 10.0 mi East 8.1 mph - N/A   Scattered Clouds
11:54 AM 75.2 °F 55.4 °F 50% 30.28 in 10.0 mi NNE 5.8 mph - N/A   Scattered Clouds
12:13 PM 77.0 °F 55.4 °F 47% 30.28 in 10.0 mi East 4.6 mph - N/A   Scattered Clouds
12:33 PM 77.0 °F 55.4 °F 47% 30.28 in 10.0 mi ESE 5.8 mph - N/A   Scattered Clouds
12:54 PM 75.2 °F 55.4 °F 50% 30.28 in 10.0 mi North 3.5 mph - N/A   Scattered Clouds
1:13 PM 75.2 °F 51.8 °F 44% 30.27 in 10.0 mi NNE 4.6 mph - N/A   Scattered Clouds
1:33 PM 78.8 °F 51.8 °F 39% 30.27 in 10.0 mi NE 5.8 mph - N/A   Scattered Clouds
1:54 PM 78.8 °F 53.6 °F 42% 30.27 in 10.0 mi NNW 5.8 mph - N/A   Mostly Cloudy
2:13 PM 75.2 °F 53.6 °F 47% 30.27 in 10.0 mi NNE 5.8 mph - N/A   Mostly Cloudy
2:33 PM 78.8 °F 51.8 °F 39% 30.27 in 10.0 mi South 3.5 mph - N/A   Scattered Clouds
2:54 PM 78.8 °F 53.6 °F 42% 30.26 in 10.0 mi NNE 3.5 mph - N/A   Clear
3:13 PM 78.8 °F 53.6 °F 42% 30.26 in 10.0 mi NNE 4.6 mph - N/A   Clear
3:33 PM 78.8 °F 51.8 °F 39% 30.26 in 10.0 mi NNE 6.9 mph - N/A   Clear
3:54 PM 80.6 °F 51.8 °F 37% 30.25 in 10.0 mi NE 4.6 mph - N/A   Scattered Clouds
4:13 PM 78.8 °F 51.8 °F 39% 30.24 in 10.0 mi NE 4.6 mph - N/A   Scattered Clouds
4:33 PM 78.8 °F 51.8 °F 39% 30.24 in 10.0 mi NE 4.6 mph - N/A   Clear
4:53 PM 78.8 °F 51.8 °F 39% 30.23 in 10.0 mi Calm Calm - N/A   Clear
5:13 PM 78.8 °F 51.8 °F 39% 30.23 in 10.0 mi North 4.6 mph - N/A   Clear
5:33 PM 78.8 °F 51.8 °F 39% 30.22 in 10.0 mi North 5.8 mph - N/A   Clear
5:53 PM 78.8 °F 51.8 °F 39% 30.21 in 10.0 mi North 3.5 mph - N/A   Clear
6:14 PM 78.8 °F 51.8 °F 39% 30.21 in 10.0 mi NNE 5.8 mph - N/A   Clear
6:33 PM 78.8 °F 51.8 °F 39% 30.21 in 10.0 mi North 8.1 mph - N/A   Clear
6:53 PM 78.8 °F 51.8 °F 39% 30.21 in 10.0 mi North 4.6 mph - N/A   Clear
7:14 PM 77.0 °F 53.6 °F 44% 30.20 in 10.0 mi North 5.8 mph - N/A   Clear
7:33 PM 77.0 °F 53.6 °F 44% 30.20 in 10.0 mi North 4.6 mph - N/A   Clear
7:53 PM 75.2 °F 57.2 °F 53% 30.19 in 10.0 mi North 3.5 mph - N/A   Clear
8:14 PM 73.4 °F 57.2 °F 57% 30.19 in 10.0 mi Calm Calm - N/A   Clear
8:33 PM 71.6 °F 57.2 °F 60% 30.18 in 10.0 mi Calm Calm - N/A   Clear
8:53 PM 69.8 °F 59.0 °F 68% 30.18 in 10.0 mi Calm Calm - N/A   Clear
9:14 PM 68.0 °F 57.2 °F 68% 30.19 in 10.0 mi Calm Calm - N/A   Clear
9:33 PM 66.2 °F 57.2 °F 73% 30.19 in 10.0 mi North 3.5 mph - N/A   Clear
9:54 PM 64.4 °F 57.2 °F 77% 30.19 in 10.0 mi Calm Calm - N/A   Clear
10:14 PM 62.6 °F 57.2 °F 82% 30.19 in 10.0 mi North 4.6 mph - N/A   Clear
10:33 PM 64.4 °F 57.2 °F 77% 30.19 in 10.0 mi NNE 3.5 mph - N/A   Clear
10:54 PM 62.6 °F 55.4 °F 77% 30.19 in 7.0 mi NNE 3.5 mph - N/A   Clear
11:13 PM 62.6 °F 55.4 °F 77% 30.19 in 10.0 mi Calm Calm - N/A   Clear
11:33 PM 62.6 °F 55.4 °F 77% 30.19 in 10.0 mi NE 3.5 mph - N/A   Clear
11:54 PM 62.6 °F 53.6 °F 72% 30.19 in 10.0 mi Calm Calm - N/A   Clear